Home > Weather > Montreal > Past weeks

Flag for Canada Weather for the Past 2 Weeks in Montreal, Quebec, Canada

Now
43 °F

Clear.


Feels Like: 40 °F
Forecast: 43 / 60 °F
Wind: 5 mph from East

Location: Montreal - Pierre Elliot Trudeau International Aiport

Current Time: May 4, 2016 at 2:02:00 AM

Latest Report: May 4, 2016 at 1:00 AM


Visibility: 15 mi

Pressure: 29.85 "Hg

Humidity: 76%

Dew Point: 36 °F

Location of MontrealLocation

Historic Weather in Montreal — Graph

°F

Montreal Temperature Yesterday

Maximum temperature yesterday: 55 °F (at 4:00 PM)
Minimum temperature yesterday: 36 °F (at 5:00 AM)
Average temperature yesterday: 47 °F

High & Low Weather Summary for the Past Weeks

 TemperatureHumidityPressure
High70 °F (Apr 21, 3:00 PM)100% (May 3, 5:00 AM)30.38 "Hg (May 3, 5:00 AM)
Low30 °F (Apr 27, 5:00 AM)15% (Apr 21, 2:00 PM)29.79 "Hg (Apr 22, 12:00 PM)
Average45 °F48%30.06 "Hg
* Reported Midnight between Apr 18 and Apr 19 — Midnight between May 3 and May 4, Montreal, Weather by CustomWeather, © 2016

Note: Actual official high and low records may vary slightly from our data, if they occured in-between our weather recording intervals... More about our weather records

Advertising

Montreal Weather History for the Previous 24 Hours

Scroll right to see more
 ConditionsComfort  
Time TempWeatherWind HumidityBarometerVisibility
12:00 AM
Wed, May 4
45 °FClear.7 mph71%29.86 "Hg15 mi
11:00 PM
Tue, May 3
46 °FClear.9 mph71%29.86 "Hg15 mi
10:00 PM48 °FClear.7 mph66%29.87 "Hg15 mi
9:00 PM50 °FPassing clouds.7 mph62%29.86 "Hg15 mi
8:00 PM52 °FPassing clouds.10 mph58%29.85 "Hg15 mi
7:00 PM54 °FPassing clouds.9 mph54%29.85 "Hg15 mi
6:00 PM55 °FPassing clouds.10 mph55%29.85 "Hg15 mi
5:00 PM55 °FPassing clouds.10 mph51%29.85 "Hg15 mi
4:00 PM55 °FScattered clouds.12 mph51%29.86 "Hg15 mi
3:00 PM54 °FPartly sunny.5 mph54%29.88 "Hg15 mi
2:00 PM52 °FPartly sunny.5 mph58%29.90 "Hg15 mi
1:00 PM52 °FPartly sunny.9 mph62%29.91 "Hg15 mi
12:00 PM50 °FPartly sunny.8 mph67%29.93 "Hg15 mi
11:00 AM48 °FPartly sunny.6 mph66%29.94 "Hg15 mi
10:00 AM48 °FBroken clouds.2 mph66%29.95 "Hg15 mi
9:00 AM46 °FBroken clouds.2 mph71%29.97 "Hg15 mi
8:00 AM45 °FPartly sunny.2 mph81%29.97 "Hg15 mi
7:00 AM37 °FBroken clouds.3 mph100%29.98 "Hg15 mi
6:00 AM36 °FFog.3 mph93%29.97 "Hg15 mi
5:00 AM36 °FFog.2 mph100%29.96 "Hg15 mi
4:00 AM37 °FLight fog.5 mph93%29.97 "Hg10 mi
3:00 AM39 °FPassing clouds.3 mph93%29.96 "Hg15 mi
2:00 AM39 °FPassing clouds.5 mph93%29.96 "Hg15 mi
Weather by CustomWeather, © 2016

See weather overviewHow to use our weather pages